Tucson Davis Monthan, AZ

5:54 PM MST on June 24, 2018 (GMT -0700)
Davis-Monthan Air Force Base

Weather History for KDMA - August, 2009

Change the Weather History Date:

Sunday, August 2, 2009

  Actual Average Record
Temperature  
Mean Temperature 90 °F -  
Max Temperature 104 °F 98 °F 107 °F (1993)
Min Temperature 77 °F 73 °F 66 °F (1965)
Cooling Degree Days 26    
Growing Degree Days 40 (Base 50)    
Moisture  
Dew Point 48 °F    
Average Humidity 24    
Maximum Humidity 48    
Minimum Humidity 10    
Precipitation  
Precipitation 0.00 in - - ()
Sea Level Pressure  
Sea Level Pressure 29.73 in    
Wind  
Wind Speed 7 mph (South)    
Max Wind Speed 20 mph    
Max Gust Speed 30 mph    
Visibility 10 miles    
Events      
Averages and records for this station are not official NWS values.
T = Trace of Precipitation, MM = Missing Value Source: NWS Daily Summary

Daily Weather History Graph

Daily Weather History Graph

Search for Another Location

Airport or City:

Astronomy

Aug. 02, 2009 Rise Set
Actual Time 5:39 AM MST 7:19 PM MST
Civil Twilight 5:12 AM MST 7:46 PM MST
Nautical Twilight 4:40 AM MST 8:18 PM MST
Astronomical Twilight 4:07 AM MST 8:51 PM MST
Moon 5:21 PM MST (8/2) 2:29 AM MST (8/2)
Length of Visible Light 14h 33m
Length of Day
13h 40m
Waxing Gibbous, 91% of the Moon is Illuminated
Aug 2
Waxing Gibbous
Aug 5
Full
Aug 13
Last Quarter
Aug 20
New
Aug 27
First Quarter

Hourly Weather History & Observations

Time (MST) Temp. Heat Index Dew Point Humidity Pressure Visibility Wind Dir Wind Speed Gust Speed Precip Events Conditions
12:55 AM 83.8 °F - 40.5 °F 22% 29.73 in 10.0 mi South 4.6 mph - N/A   Scattered Clouds
1:55 AM 82.6 °F - 40.6 °F 23% 29.73 in 10.0 mi Calm Calm - N/A   Partly Cloudy
2:55 AM 80.6 °F - 41.0 °F 24% 29.74 in 10.0 mi SE 6.9 mph - N/A   Clear
3:55 AM 79.7 °F - 41.4 °F 26% 29.74 in 10.0 mi SSE 5.8 mph - N/A   Clear
4:55 AM 77.9 °F - 47.1 °F 34% 29.76 in 10.0 mi South 6.9 mph - N/A   Clear
5:55 AM 78.6 °F - 56.1 °F 46% 29.78 in 10.0 mi South 9.2 mph - N/A   Clear
6:55 AM 80.4 °F 81.0 °F 58.8 °F 48% 29.80 in 10.0 mi South 5.8 mph - N/A   Clear
7:55 AM 84.0 °F 84.2 °F 60.3 °F 45% 29.82 in 10.0 mi South 9.2 mph - N/A   Clear
8:55 AM 88.3 °F 86.7 °F 56.1 °F 33% 29.81 in 10.0 mi Calm Calm - N/A   Clear
9:55 AM 92.1 °F - 52.7 °F 26% 29.81 in 10.0 mi Calm Calm - N/A   Partly Cloudy
10:55 AM 94.1 °F - 49.1 °F 21% 29.79 in 10.0 mi North 4.6 mph - N/A   Clear
11:55 AM 96.6 °F - 47.3 °F 19% 29.77 in 10.0 mi WNW 8.1 mph - N/A   Scattered Clouds
12:55 PM 99.3 °F - 46.8 °F 17% 29.74 in 10.0 mi NW 6.9 mph - N/A   Clear
1:55 PM 101.3 °F - 43.7 °F 14% 29.71 in 10.0 mi NNW 12.7 mph 17.3 mph N/A   Clear
2:55 PM 104.4 °F - 40.6 °F 11% 29.67 in 10.0 mi WNW 12.7 mph - N/A   Clear
3:55 PM 104.7 °F - 38.7 °F 10% 29.65 in 10.0 mi WNW 15.0 mph - N/A   Clear
4:55 PM 104.9 °F - 38.7 °F 10% 29.64 in 10.0 mi WNW 13.8 mph - N/A   Mostly Cloudy
5:55 PM 100.2 °F - 50.2 °F 18% 29.67 in 10.0 mi SSE 17.3 mph - N/A   Overcast
6:00 PM 100.4 °F - 51.8 °F 20% 29.66 in 10.0 mi South 11.5 mph - N/A   Overcast
6:09 PM 98.6 °F - 50.0 °F 19% 29.66 in 10.0 mi South 13.8 mph - N/A   Mostly Cloudy
6:55 PM 99.1 °F - 49.3 °F 18% 29.68 in 10.0 mi South 11.5 mph 17.3 mph N/A   Overcast
7:55 PM 98.1 °F - 45.3 °F 16% 29.69 in 10.0 mi Calm Calm - N/A   Partly Cloudy
8:55 PM 93.4 °F - 52.2 °F 25% 29.73 in 10.0 mi NE 19.6 mph 29.9 mph N/A   Clear
9:55 PM 92.5 °F - 51.3 °F 24% 29.73 in 10.0 mi NE 16.1 mph 23.0 mph N/A   Overcast
10:55 PM 92.1 °F - 50.4 °F 24% 29.73 in 10.0 mi East 8.1 mph - N/A   Overcast
11:55 PM 90.1 °F - 51.4 °F 27% 29.72 in 10.0 mi South 5.8 mph - N/A   Mostly Cloudy